FLOCK 4V 24

导读

FLOCK 4V 24是美国Planet公司(原行星实验室)研制的3U遥感立方体卫星,属于Flock 4v批次26颗SuperDove卫星之一,于2020年9月3日在欧美阿丽亚娜太空公司VV16飞行任务中成功发射,运行于530千米倾角97.5°的太阳同步轨道。该卫星属于鸽群遥感星座,单星重约5kg,承担3-5米分辨率对地光学成像任务,服务全球高频次地面观测,支撑农业、自然资源管理等领域应用。因未配置动力系统,该卫星目前已大概率完成任务陨落入大气层。

Basic Information
目录编号:
46738
目录名称:
FLOCK 4V 24
国际标识:
2020-061BN
轨道中心:
EARTH
卫星名称:
FLOCK 4V 24
卫星全名:
--
卫星状态:
已陨落 最后检测时间 2024-03-20
发射日期:
2020-09-03 UTC
国别 :
美国 (US)
星等 :
--
Orbit Information
数据来源 国际轨道数据
星历时间: 2024-03-12T11:19:32+0800
轨道信息已过期854天
半长轴: 6595.778km
偏心率: 0.001111
轨道倾角: 97.291°
近地点辐角 232.242°
升交点赤经 156.564°
平近点角 127.786°
近地点: 210.315km
远地点: 224.971km
周期: 88.850分钟
每日圈数: 16.207042
Detailed Information
使用方式:
暂无